Location: Dumpton Point
(51.3500°N, 1.4433°E)
Time: 13:42:23
(UTC+00:00)

MetOp-A - Visible Passes

Search period start: 06 August 2020 00:00
Search period end: 16 August 2020 00:00
Orbit: 819 x 821 km, 98.5° (Epoch: 06 August)

Date Brightness Start Highest point End Pass type
(mag) Time Alt. Az. Time Alt. Az. Time Alt. Az.
06 Aug 6.8 21:36:58 10° WSW 21:39:25 13° W 21:41:51 10° WNW visible
07 Aug 6.5 21:14:37 10° SW 21:18:22 19° W 21:22:09 10° NW visible
08 Aug 6.0 20:52:53 10° SSW 20:57:23 27° W 21:01:56 10° NW visible
09 Aug 5.5 20:31:30 10° SSW 20:36:29 39° W 20:41:30 10° NNW visible
10 Aug 4.9 20:10:24 10° S 20:15:39 56° W 20:20:56 10° NNW visible
11 Aug 6.7 21:33:10 10° WSW 21:35:51 14° W 21:38:34 10° NW visible
12 Aug 6.5 21:10:56 10° SW 21:14:50 20° W 21:18:45 10° NW visible
13 Aug 6.0 20:49:16 10° SSW 20:53:51 29° W 20:58:29 10° NNW visible
14 Aug 5.4 20:27:56 10° SSW 20:32:58 41° W 20:38:02 10° NNW visible
15 Aug 4.8 20:06:52 10° S 20:12:08 59° W 20:17:27 10° NNW visible
